Temp_Advection
nan nan nan nan nan nan nan nan nan nan nan nan nan nan nan nan nan nan nan nan nan nan
nan -0 -0 -0 -0 0 -0 -0 0 0 -0 1 0 -0 0 -0 -0 -0 0 -0 -1 nan
nan -0 -0 -0 -0 -0 -0 0 0 0 -0 -0 0 0 0 -0 -0 -0 -0 -0 -0 nan
nan -0 -0 -0 -0 -0 -0 0 0 0 -0 0 0 0 0 0 -0 -0 -0 -0 -0 nan
nan -0 -1 -1 -0 -0 -0 0 0 0 0 0 0 1 0 -0 0 0 -0 -0 -0 nan
nan -0 -1 -1 -1 -0 -0 -0 0 0 0 0 1 1 0 0 -0 -0 0 -0 -1 nan
nan -0 -0 -1 -0 -0 -0 -0 -0 0 0 1 1 0 0 0 -0 -1 -0 -0 -1 nan
nan -1 -1 -1 -0 -0 -0 -0 -0 0 1 1 0 0 0 0 -0 -1 -1 -1 -0 nan
nan -1 -1 -1 -0 -0 -0 0 0 1 0 0 0 0 -0 0 -1 -1 -1 -0 -0 nan
nan -1 -1 -1 -0 -0 -0 0 0 0 0 -0 0 0 -0 -1 -0 -0 -1 -0 -1 nan
nan -1 -0 -0 -1 -0 0 0 0 0 0 0 0 -0 -0 -0 -0 -0 -0 -0 -0 nan
nan -1 -1 -0 -1 -1 -0 0 0 0 0 0 0 -0 -0 -0 -0 -0 -0 0 0 nan
nan -1 -1 -0 -0 -0 -0 0 0 0 0 0 0 -0 -0 -0 0 0 0 0 0 nan
nan nan nan nan nan nan nan nan nan nan nan nan nan nan nan nan nan nan nan nan nan nan
Wind_Speed
13 15 18 18 21 23 23 24 24 28 28 27 24 23 24 25 24 31 38 40 39 39
13 16 19 23 24 26 26 26 26 27 28 27 27 25 23 26 27 29 33 39 41 41
17 17 18 21 26 29 29 28 27 28 28 30 25 25 26 27 29 32 33 34 38 39
18 17 20 22 26 29 30 30 30 28 29 29 26 26 27 28 29 33 34 35 36 37
22 21 23 25 25 27 30 28 30 29 29 27 28 28 27 26 28 32 34 36 38 37
21 21 24 26 27 24 26 31 28 27 29 27 29 27 26 24 24 27 34 37 37 38
15 19 23 26 26 24 27 28 26 27 25 27 26 24 23 29 31 31 29 32 37 37
17 20 22 25 25 24 22 23 23 22 20 19 19 21 24 25 29 31 35 36 33 36
16 20 20 23 21 21 19 17 16 15 11 12 18 21 24 30 35 41 37 37 32 37
16 15 18 22 20 15 13 11 9 7 8 10 14 19 23 27 27 21 21 25 28 29
18 14 15 17 18 13 12 10 8 9 11 8 9 15 22 12 9 11 15 17 21 22
18 14 16 16 15 13 13 9 12 11 13 8 11 11 18 10 6 8 12 13 14 17
19 12 16 16 11 8 7 8 9 8 9 6 3 5 10 7 4 6 7 7 6 5
18 9 11 8 7 4 5 4 8 10 10 6 6 2 8 7 14 16 16 15 13 10
Wind_Direction
281 279 286 286 282 274 266 263 261 264 266 267 278 270 258 262 258 247 242 241 243 243
280 282 281 284 280 273 272 273 272 264 265 267 273 266 257 260 265 262 251 245 244 247
280 276 273 273 276 272 272 271 270 265 266 264 270 257 255 258 266 267 256 254 249 248
303 302 299 292 276 272 272 272 269 267 264 267 267 258 260 263 263 262 261 255 251 249
293 290 288 290 282 279 271 267 271 264 265 267 265 260 263 266 270 262 256 256 252 250
293 292 295 291 287 279 272 269 266 264 263 263 260 257 260 262 265 267 257 256 253 249
307 303 298 294 289 292 278 274 267 263 262 261 252 255 262 259 266 267 264 258 250 245
321 314 305 302 292 280 279 269 266 265 257 251 258 273 277 271 269 271 266 258 253 244
316 312 308 313 290 279 275 269 254 240 241 265 282 275 279 274 277 280 263 249 246 238
314 317 319 296 299 280 266 243 221 234 250 295 287 289 293 284 273 263 247 234 232 231
320 318 315 304 303 278 255 217 216 227 253 289 298 306 327 315 281 246 232 227 232 233
317 316 325 303 303 268 236 240 242 245 261 248 295 312 343 321 297 234 223 223 225 224
317 326 317 301 283 235 259 241 235 221 207 228 263 354 5 17 99 131 158 168 184 195
314 334 311 296 250 183 229 247 198 183 191 191 195 32 38 49 101 107 108 115 116 130
Height
1462 1461 1460 1461 1462 1462 1463 1463 1464 1465 1466 1465 1465 1466 1467 1468 1469 1471 1473 1475 1477 1479
1457 1457 1456 1456 1457 1457 1457 1457 1457 1458 1458 1459 1458 1459 1460 1460 1461 1463 1464 1466 1469 1470
1451 1450 1450 1451 1450 1451 1450 1450 1451 1451 1451 1451 1451 1452 1453 1453 1454 1454 1455 1457 1459 1461
1447 1445 1444 1444 1444 1443 1443 1443 1443 1443 1442 1442 1442 1443 1444 1445 1446 1446 1447 1449 1450 1453
1442 1440 1439 1438 1438 1436 1435 1435 1435 1434 1434 1434 1434 1435 1435 1436 1437 1437 1438 1439 1441 1444
1438 1435 1433 1432 1430 1428 1427 1427 1426 1426 1426 1426 1426 1427 1428 1428 1428 1428 1428 1430 1431 1435
1432 1429 1427 1425 1422 1421 1420 1418 1417 1417 1417 1418 1418 1419 1419 1419 1419 1419 1419 1420 1421 1423
1427 1422 1422 1418 1416 1414 1412 1411 1411 1410 1410 1411 1412 1412 1412 1411 1410 1409 1409 1409 1411 1414
1421 1419 1416 1413 1409 1408 1406 1405 1405 1404 1406 1406 1407 1406 1404 1403 1400 1397 1396 1398 1402 1407
1418 1414 1411 1408 1405 1402 1401 1400 1401 1401 1403 1403 1402 1400 1397 1393 1388 1385 1386 1390 1395 1400
1413 1409 1406 1403 1400 1398 1398 1397 1398 1399 1400 1400 1399 1397 1390 1384 1382 1382 1383 1386 1391 1395
1409 1404 1401 1399 1397 1395 1393 1394 1396 1396 1397 1398 1397 1395 1388 1383 1380 1380 1382 1385 1388 1393
1405 1400 1398 1395 1393 1392 1392 1392 1392 1392 1394 1396 1395 1394 1390 1384 1381 1380 1380 1384 1388 1392
1402 1397 1396 1392 1392 1391 1391 1390 1390 1391 1393 1394 1394 1394 1392 1391 1385 1384 1385 1387 1390 1394